map of KWI home
Great Circle Mapper logo
KWI - Airport
Location
City:  Kuwait City, Kuwait
Name:Kuwait International Airport
ICAO:OKBK
IATA:KWI

Details
Type:Airport (Aerodrome, Airfield)
Use:Public/Civil, Military, International (customs port of entry)
Latitude:2913'36"N (29.226667)
Longitude:4758'47"E (47.979722)
Elevation:206 ft (63 m)
Variation:3.50E (WMM2015 magnetic declination)
0.05 annual change
Runways:2
Longest:11483 × 148 ft (3500 × 45 m), paved

Time
Time Zone:UTC+3
Local Time:

Weather
METAR:OKBK 301000Z 34007KT CAVOK 47/05 Q0999 NOSIG
TAF:OKBK 300445Z 3006/3112 VRB03KT 7000 SKC
TEMPO 3007/3012 35010KT

Related Locations
Nearby:
Farthest:GMR: 11973 mi / 19269 km
Mangareva [Totegegie], Gambier Islands, PF

Find:

   beyond  
but within

Other Information
Maps:
NOTAMs:
Links:
Sources:

  
flag of Kuwait   

Airport Diagram

Airport diagram for KWI

Airport diagram (OBSOLETE) from NGA

Sectional Chart

Flight Planning
at skyvector.com

Satellite Image

Google Maps Satellite view

 

Copyright © 2004-2016 Karl L. Swartz. All rights reserved.
The Great Circle Mapper name and logo are trademarks of the Great Circle Mapper.
All other trademarks mentioned herein belong to their respective owners.
Please see credits for attibutions and further copyright information.

  Follow gcmap on Facebook Follow gcmap on Twitter Follow gcmap on Google+ GCmap on LinkedIn

hCard Microformat

Geo Microformat